| time (UTC) | temp F | wind direction | speed knots | gust knots | rain 1hr in | rain 24hr in | rain mn in | humidity % | barometer mb |
| 20260502183134 | 46 | 20 | 0.9 | 6.1 | 0.00 | 0.12 | 0.08 | 61 | 1023.9 |
| 20260502181543 | 47 | 246 | 1.7 | 5.2 | 0.00 | 0.12 | 0.08 | 59 | 1023.9 |
| 20260502180129 | 47 | 251 | 0.9 | 3.5 | 0.00 | 0.12 | 0.08 | 61 | 1024.0 |
| 20260502170110 | 47 | 273 | 1.7 | 3.5 | 0.00 | 0.12 | 0.08 | 58 | 1024.2 |
| 20260502163110 | 45 | 262 | 0.9 | 3.5 | 0.00 | 0.14 | 0.08 | 64 | 1024.5 |
| 20260502161525 | 45 | 223 | 0.9 | 2.6 | 0.00 | 0.14 | 0.08 | 64 | 1024.5 |
| 20260502160112 | 44 | 299 | 1.7 | 3.5 | 0.00 | 0.14 | 0.08 | 68 | 1024.6 |
| 20260502151524 | 43 | 330 | 1.7 | 5.2 | 0.00 | 0.16 | 0.08 | 70 | 1024.4 |
| 20260502150110 | 43 | 360 | 1.7 | 6.1 | 0.00 | 0.16 | 0.08 | 70 | 1024.1 |
| 20260502140108 | 43 | 346 | 2.6 | 7.0 | 0.00 | 0.23 | 0.08 | 75 | 1023.7 |
| 20260502123137 | 41 | 293 | 3.5 | 7.8 | 0.00 | 0.30 | 0.08 | 81 | 1023.6 |
| 20260502121553 | 41 | 9 | 1.7 | 5.2 | 0.00 | 0.30 | 0.08 | 80 | 1023.7 |
| 20260502120133 | 41 | 304 | 2.6 | 7.0 | 0.00 | 0.30 | 0.08 | 80 | 1023.5 |
| 20260502114617 | 40 | 295 | 0.9 | 6.1 | 0.00 | 0.44 | 0.08 | 81 | 1023.3 |
| 20260502113032 | 40 | 307 | 3.5 | 6.1 | 0.00 | 0.44 | 0.08 | 81 | 1023.3 |
| 20260502111633 | 40 | 15 | 1.7 | 7.0 | 0.00 | 0.44 | 0.08 | 81 | 1023.2 |
| 20260502110038 | 40 | 358 | 1.7 | 6.1 | 0.00 | 0.44 | 0.08 | 81 | 1023.0 |
| 20260502104620 | 40 | 8 | 2.6 | 7.0 | 0.00 | 0.59 | 0.08 | 81 | 1022.9 |
| 20260502103038 | 40 | 344 | 1.7 | 6.1 | 0.00 | 0.59 | 0.08 | 83 | 1022.7 |
| 20260502101610 | 40 | 318 | 3.5 | 6.1 | 0.00 | 0.59 | 0.08 | 82 | 1022.7 |
| 20260502100131 | 40 | 29 | 1.7 | 7.0 | 0.00 | 0.59 | 0.08 | 83 | 1022.7 |
| 20260502091507 | 40 | 359 | 1.7 | 7.8 | 0.00 | 0.68 | 0.08 | 84 | 1022.4 |
| 20260502071517 | 42 | 247 | 0.0 | 0.0 | 0.00 | 0.71 | 0.00 | 88 | 1021.8 |
| 20260502070129 | 43 | 245 | 0.0 | 1.7 | 0.00 | 0.71 | 0.00 | 84 | 1021.7 |
| 20260502064537 | 43 | 302 | 0.0 | 2.6 | 0.00 | 0.71 | 0.00 | 83 | 1021.7 |
| 20260502063045 | 43 | 108 | 0.0 | 1.7 | 0.00 | 0.71 | 0.00 | 83 | 1021.7 |
| 20260502061507 | 43 | 3 | 0.0 | 2.6 | 0.00 | 0.71 | 0.00 | 85 | 1022.0 |
| 20260502060027 | 42 | 322 | 0.9 | 2.6 | 0.00 | 0.71 | 0.00 | 87 | 1022.1 |
| 20260502054532 | 42 | 44 | 0.0 | 1.7 | 0.00 | 0.71 | 0.00 | 87 | 1022.2 |
| 20260502053107 | 42 | 129 | 0.0 | 0.9 | 0.00 | 0.71 | 0.00 | 87 | 1022.2 |
| 20260502051522 | 42 | 129 | 0.0 | 0.9 | 0.00 | 0.71 | 0.00 | 88 | 1022.4 |
| 20260502050059 | 42 | 186 | 0.0 | 1.7 | 0.00 | 0.71 | 0.00 | 88 | 1022.4 |
| 20260502044513 | 42 | 94 | 0.0 | 2.6 | 0.00 | 0.71 | 0.00 | 87 | 1022.3 |
| 20260502043037 | 42 | 26 | 0.0 | 2.6 | 0.00 | 0.71 | 0.00 | 87 | 1022.5 |
| 20260502041515 | 41 | 67 | 0.9 | 7.0 | 0.00 | 0.71 | 0.00 | 88 | 1022.5 |
| 20260502040056 | 41 | 20 | 0.9 | 6.1 | 0.00 | 0.71 | 0.00 | 89 | 1022.4 |
| 20260502034515 | 41 | 100 | 3.5 | 7.8 | 0.00 | 0.71 | 0.71 | 90 | 1022.2 |
| 20260502033058 | 41 | 295 | 3.5 | 7.8 | 0.00 | 0.71 | 0.71 | 90 | 1022.3 |
| 20260502031504 | 42 | 255 | 2.6 | 9.6 | 0.00 | 0.71 | 0.71 | 89 | 1022.1 |
| 20260502030041 | 43 | 11 | 4.3 | 9.6 | 0.00 | 0.71 | 0.71 | 90 | 1022.0 |
| 20260502024503 | 42 | 304 | 0.0 | 0.0 | 0.00 | 0.71 | 0.71 | 91 | 1022.0 |
| 20260502023053 | 43 | 23 | 0.0 | 0.0 | 0.00 | 0.71 | 0.71 | 91 | 1021.9 |
| 20260502021516 | 43 | 23 | 0.0 | 0.0 | 0.00 | 0.71 | 0.71 | 90 | 1022.0 |
| 20260502020057 | 43 | 23 | 0.0 | 0.0 | 0.00 | 0.71 | 0.71 | 89 | 1021.9 |
| 20260502014631 | 43 | 23 | 0.0 | 0.0 | 0.00 | 0.71 | 0.71 | 88 | 1021.7 |
| 20260502013023 | 43 | 321 | 0.0 | 0.0 | 0.02 | 0.71 | 0.71 | 87 | 1021.4 |
| 20260502011604 | 43 | 267 | 0.0 | 3.5 | 0.02 | 0.71 | 0.71 | 85 | 1021.3 |
| 20260502010013 | 44 | 307 | 2.6 | 10.4 | 0.02 | 0.71 | 0.71 | 86 | 1021.4 |
| 20260502004611 | 44 | 39 | 2.6 | 7.8 | 0.02 | 0.71 | 0.71 | 84 | 1021.2 |
| 20260502003015 | 46 | 238 | 0.0 | 4.3 | 0.00 | 0.69 | 0.69 | 77 | 1020.9 |
| 20260502001549 | 46 | 174 | 0.9 | 6.1 | 0.00 | 0.69 | 0.69 | 79 | 1020.6 |
| 20260502000133 | 47 | 226 | 0.0 | 2.6 | 0.00 | 0.69 | 0.69 | 78 | 1020.5 |
| 20260501234547 | 47 | 221 | 0.0 | 0.0 | 0.00 | 0.69 | 0.69 | 74 | 1020.5 |
| 20260501233042 | 47 | 221 | 0.0 | 1.7 | 0.00 | 0.69 | 0.69 | 73 | 1020.4 |
| 20260501231631 | 47 | 216 | 0.0 | 1.7 | 0.00 | 0.69 | 0.69 | 72 | 1020.4 |
| 20260501230029 | 47 | 213 | 0.0 | 2.6 | 0.00 | 0.69 | 0.69 | 71 | 1020.4 |
| 20260501224616 | 47 | 247 | 0.9 | 3.5 | 0.00 | 0.69 | 0.69 | 70 | 1020.4 |
| 20260501223032 | 48 | 242 | 0.0 | 2.6 | 0.00 | 0.69 | 0.69 | 69 | 1020.5 |
| 20260501221618 | 48 | 240 | 0.9 | 3.5 | 0.00 | 0.69 | 0.69 | 70 | 1020.4 |
| 20260501220053 | 48 | 258 | 0.0 | 2.6 | 0.00 | 0.69 | 0.69 | 71 | 1020.4 |
| 20260501211553 | 47 | 243 | 0.0 | 0.0 | 0.00 | 0.69 | 0.69 | 74 | 1020.1 |
| 20260501210045 | 47 | 243 | 0.0 | 1.7 | 0.00 | 0.69 | 0.69 | 74 | 1020.0 |
| 20260501204601 | 47 | 254 | 0.0 | 1.7 | 0.00 | 0.69 | 0.69 | 76 | 1019.9 |
| 20260501203112 | 47 | 304 | 0.0 | 2.6 | 0.00 | 0.69 | 0.69 | 78 | 1020.0 |
| 20260501201529 | 47 | 318 | 0.0 | 0.9 | 0.00 | 0.69 | 0.69 | 79 | 1019.8 |
| 20260501200119 | 46 | 229 | 0.0 | 1.7 | 0.00 | 0.69 | 0.69 | 81 | 1019.8 |
| 20260501194514 | 45 | 250 | 0.0 | 0.9 | 0.00 | 0.69 | 0.69 | 82 | 1020.0 |
| 20260501193021 | 45 | 273 | 0.0 | 2.6 | 0.00 | 0.69 | 0.69 | 85 | 1020.0 |
| 20260501191621 | 45 | 333 | 0.0 | 3.5 | 0.00 | 0.69 | 0.69 | 85 | 1019.9 |
| 20260501190052 | 45 | 3 | 1.7 | 6.1 | 0.02 | 0.69 | 0.69 | 85 | 1019.9 |
| 20260501184610 | 45 | 347 | 0.9 | 2.6 | 0.02 | 0.69 | 0.69 | 86 | 1019.6 |